This is the latest recevied weather packets stored in our database for station/object SQ5AAG-2. If no packets are shown the sender has not sent any weather packets the latest 10 day(s).
| Time | Temp. | Humidity | Pressure | Rain* | Wind** | Luminosity | Snow |
|---|---|---|---|---|---|---|---|
| 1787764947 | 21.11° C | 48% | 1007.5 hPa | 0 mm | - | - | - |
| 1787764851 | 21.11° C | 48% | 1007.5 hPa | 0 mm | - | - | - |
| 1787764584 | 21.67° C | 47% | 1007.5 hPa | 0 mm | - | - | - |
| 1787764551 | 21.67° C | 47% | 1007.5 hPa | 0 mm | - | - | - |
| 1787764309 | 22.78° C | 46% | 1007.5 hPa | 0 mm | - | - | - |
| 1787764250 | 22.78° C | 46% | 1007.5 hPa | 0 mm | - | - | - |
| 1787763950 | 23.33° C | 44% | 1007.3 hPa | 0 mm | - | - | - |
| 1787763650 | 23.89° C | 43% | 1007.4 hPa | 0 mm | - | - | - |
| 1787763385 | 24.44° C | 42% | 1007.4 hPa | 0 mm | - | - | - |
| 1787763349 | 24.44° C | 42% | 1007.4 hPa | 0 mm | - | - | - |
| 1787763049 | 24.44° C | 42% | 1007.3 hPa | 0 mm | - | - | - |
| 1787762749 | 25° C | 41% | 1007.4 hPa | 0 mm | - | - | - |
| 1787762502 | 25.56° C | 41% | 1007.2 hPa | 0 mm | - | - | - |
| 1787762448 | 25.56° C | 41% | 1007.2 hPa | 0 mm | - | - | - |
| 1787762148 | 25.56° C | 41% | 1007.2 hPa | 0 mm | - | - | - |
| 1787761848 | 25.56° C | 41% | 1007.2 hPa | 0 mm | - | - | - |
| 1787761582 | 25.56° C | 42% | 1007.1 hPa | 0 mm | - | - | - |
| 1787761548 | 25.56° C | 42% | 1007.1 hPa | 0 mm | - | - | - |
| 1787761247 | 24.44° C | 44% | 1007.1 hPa | 0 mm | - | - | - |
| 1787760981 | 23.89° C | 46% | 1007.1 hPa | 0 mm | - | - | - |
| 1787760947 | 23.89° C | 46% | 1007.1 hPa | 0 mm | - | - | - |
| 1787760682 | 22.22° C | 47% | 1007.3 hPa | 0 mm | - | - | - |
| 1787760647 | 22.22° C | 47% | 1007.3 hPa | 0 mm | - | - | - |
| 1787760346 | 22.22° C | 45% | 1007.3 hPa | 0 mm | - | - | - |
| 1787760082 | 22.22° C | 45% | 1007.3 hPa | 0 mm | - | - | - |
* Rain latest hour (hover to see other rain measurements)
** Current wind speed in m/s (hover to see current wind gust speed)